Location: Congrier
(47.8099°N, 1.1170°W)
Time: 14:53:05
(UTC+00:00)

Cosmos 1025 Rocket - Pass Details

Date: 28 January 2023
Orbit: 593 x 616 km, 82.5° (Epoch: 26 March)

Event Time Altitude Azimuth Distance (km) Brightness Sun altitude
Rises 18:13:28 0° 204° (SSW) 2,819 7.0 -12.7°
Reaches altitude 10° 18:15:44 10° 211° (SSW) 1,923 6.2 -13.0°
Maximum altitude 18:19:48 44° 284° (WNW) 830 4.2 -13.7°
Drops below altitude 10° 18:23:55 10° 358° (N) 1,946 5.5 -14.4°
Sets 18:26:14 0° 5° (N) 2,857 6.3 -14.8°
